Time,TemperatureF,DewpointF,PressureIn,WindDirection,WindDirectionDegrees,WindSpeedMPH,WindSpeedGustMPH,Humidity,HourlyPrecipIn,Conditions,Clouds,dailyrainin,SoftwareType,DateUTC
2013-07-24 00:01:00,63.0,58.4,29.72,South,171,0.0,0.0,85,0.00,,BKN025,0.00,VWS V14.01,2013-07-24 04:01:00,
2013-07-24 00:02:00,63.0,58.4,29.72,South,171,0.0,0.0,85,0.00,,BKN025,0.00,VWS V14.01,2013-07-24 04:02:00,
2013-07-24 00:07:00,63.1,58.6,29.72,South,171,0.0,0.0,85,0.00,,BKN025,0.00,VWS V14.01,2013-07-24 04:07:00,
2013-07-24 00:12:00,63.1,58.9,29.72,South,171,0.0,0.0,86,0.00,,BKN025,0.00,VWS V14.01,2013-07-24 04:12:00,
2013-07-24 00:17:00,63.1,58.9,29.72,South,171,0.0,0.0,86,0.00,,BKN025,0.00,VWS V14.01,2013-07-24 04:17:00,
2013-07-24 00:22:00,63.5,59.2,29.72,South,171,0.0,0.0,86,0.00,,BKN025,0.00,VWS V14.01,2013-07-24 04:22:00,
2013-07-24 00:27:00,63.9,59.6,29.72,South,171,0.0,0.0,86,0.00,,BKN025,0.00,VWS V14.01,2013-07-24 04:27:00,
2013-07-24 00:32:00,63.9,59.9,29.72,South,171,0.0,0.0,87,0.00,,BKN025,0.00,VWS V14.01,2013-07-24 04:32:00,
2013-07-24 00:37:00,64.8,60.8,29.72,South,171,0.0,0.0,87,0.00,,BKN025,0.00,VWS V14.01,2013-07-24 04:37:00,
2013-07-24 00:42:00,64.8,60.8,29.72,South,171,0.0,0.0,87,0.00,,OVC036,0.00,VWS V14.01,2013-07-24 04:42:00,
2013-07-24 00:47:00,65.3,61.3,29.72,South,171,0.0,0.0,87,0.00,,OVC036,0.00,VWS V14.01,2013-07-24 04:47:00,
2013-07-24 00:52:00,65.5,61.5,29.72,South,171,0.0,0.0,87,0.00,,OVC036,0.00,VWS V14.01,2013-07-24 04:52:00,
2013-07-24 00:57:00,65.5,61.5,29.72,South,171,0.0,0.0,87,0.00,,OVC036,0.00,VWS V14.01,2013-07-24 04:57:00,
2013-07-24 01:02:00,65.8,61.5,29.72,South,173,0.0,0.0,86,0.00,,OVC036,0.00,VWS V14.01,2013-07-24 05:02:00,
2013-07-24 01:07:00,65.8,61.5,29.72,South,173,0.0,0.0,86,0.00,,OVC036,0.00,VWS V14.01,2013-07-24 05:07:00,
2013-07-24 01:12:00,65.8,61.5,29.72,South,173,0.0,0.0,86,0.00,,OVC036,0.00,VWS V14.01,2013-07-24 05:12:00,
2013-07-24 01:17:00,65.8,61.5,29.72,South,173,0.0,0.0,86,0.00,,OVC036,0.00,VWS V14.01,2013-07-24 05:17:00,
2013-07-24 01:22:00,66.0,61.7,29.72,South,173,0.0,0.0,86,0.00,,OVC036,0.00,VWS V14.01,2013-07-24 05:22:00,
2013-07-24 01:27:00,66.0,61.7,29.72,South,172,0.0,0.0,86,0.00,,OVC036,0.00,VWS V14.01,2013-07-24 05:27:00,
2013-07-24 01:32:00,66.0,61.7,29.72,South,172,0.0,0.0,86,0.00,,OVC036,0.00,VWS V14.01,2013-07-24 05:32:00,
2013-07-24 01:37:00,66.0,61.7,29.72,South,172,0.0,0.0,86,0.00,,OVC036,0.00,VWS V14.01,2013-07-24 05:37:00,
2013-07-24 01:42:00,66.0,61.4,29.72,South,172,0.0,0.0,85,0.00,,BKN016,0.00,VWS V14.01,2013-07-24 05:42:00,
2013-07-24 01:47:00,65.8,61.2,29.72,South,172,0.0,0.0,85,0.00,,BKN016,0.00,VWS V14.01,2013-07-24 05:47:00,
2013-07-24 01:52:00,65.7,61.0,29.72,South,172,0.0,0.0,85,0.00,,OVC021,0.00,VWS V14.01,2013-07-24 05:52:00,
2013-07-24 01:57:00,65.7,61.0,29.72,South,172,0.0,0.0,85,0.00,,OVC021,0.00,VWS V14.01,2013-07-24 05:57:00,
2013-07-24 02:02:00,65.7,61.0,29.72,South,172,0.0,0.0,85,0.00,,OVC021,0.00,VWS V14.01,2013-07-24 06:02:00,
2013-07-24 02:07:00,65.7,61.0,29.72,South,172,0.0,0.0,85,0.00,,OVC021,0.00,VWS V14.01,2013-07-24 06:07:00,
2013-07-24 02:12:00,65.3,60.7,29.72,South,172,0.0,0.0,85,0.00,,OVC021,0.00,VWS V14.01,2013-07-24 06:12:00,
2013-07-24 02:17:00,65.3,60.7,29.72,South,172,0.0,0.0,85,0.00,,OVC021,0.00,VWS V14.01,2013-07-24 06:17:00,
2013-07-24 02:22:00,64.9,60.7,29.72,NNW,332,0.0,0.0,86,0.04,,OVC021,0.04,VWS V14.01,2013-07-24 06:22:00,
2013-07-24 02:27:00,64.6,60.6,29.72,NNW,332,0.0,0.0,87,0.04,,OVC021,0.04,VWS V14.01,2013-07-24 06:27:00,
2013-07-24 02:32:00,64.6,60.6,29.72,NNW,332,0.0,0.0,87,0.04,,OVC021,0.04,VWS V14.01,2013-07-24 06:32:00,
2013-07-24 02:37:00,64.6,60.6,29.72,NNW,332,0.0,0.0,87,0.04,,OVC021,0.04,VWS V14.01,2013-07-24 06:37:00,
2013-07-24 02:42:00,64.6,60.6,29.72,NNW,332,0.0,0.0,87,0.04,,,0.04,VWS V14.01,2013-07-24 06:42:00,
2013-07-24 02:47:00,64.6,60.6,29.72,NNW,332,0.0,0.0,87,0.04,,,0.04,VWS V14.01,2013-07-24 06:47:00,
2013-07-24 02:52:00,64.4,60.5,29.72,NNW,332,0.0,0.0,87,0.08,,,0.08,VWS V14.01,2013-07-24 06:52:00,
2013-07-24 02:57:00,64.2,60.3,29.72,NNW,332,0.0,0.0,87,0.08,,,0.08,VWS V14.01,2013-07-24 06:57:00,
2013-07-24 03:02:00,63.9,59.9,29.72,NNW,333,0.0,0.0,87,0.08,,,0.08,VWS V14.01,2013-07-24 07:02:00,
2013-07-24 03:07:00,63.7,59.7,29.72,NNW,333,0.0,0.0,87,0.12,,,0.12,VWS V14.01,2013-07-24 07:07:00,
2013-07-24 03:12:00,63.5,59.9,29.72,NNW,333,0.0,0.0,88,0.12,,,0.12,VWS V14.01,2013-07-24 07:12:00,
2013-07-24 03:17:00,63.5,59.9,29.72,NNW,333,0.0,0.0,88,0.12,,,0.12,VWS V14.01,2013-07-24 07:17:00,
2013-07-24 03:22:00,63.5,59.9,29.72,NNW,333,0.0,0.0,88,0.08,,,0.12,VWS V14.01,2013-07-24 07:22:00,
2013-07-24 03:27:00,63.5,59.9,29.72,NNW,333,0.0,0.0,88,0.08,,,0.12,VWS V14.01,2013-07-24 07:27:00,
2013-07-24 03:32:00,63.5,59.9,29.72,NNW,333,0.0,0.0,88,0.08,,,0.12,VWS V14.01,2013-07-24 07:32:00,
2013-07-24 03:37:00,63.5,59.9,29.72,WNW,300,0.0,0.0,88,0.12,,,0.16,VWS V14.01,2013-07-24 07:37:00,
2013-07-24 03:42:00,63.5,59.9,29.72,SW,235,0.0,0.0,88,0.16,,-RA,0.20,VWS V14.01,2013-07-24 07:42:00,
2013-07-24 03:47:00,63.5,59.9,29.72,SW,235,0.0,0.0,88,0.16,,-RA,0.20,VWS V14.01,2013-07-24 07:47:00,
2013-07-24 03:52:00,63.5,59.9,29.72,South,181,0.0,0.0,88,0.16,,-RA,0.20,VWS V14.01,2013-07-24 07:52:00,
2013-07-24 03:57:00,63.3,59.7,29.72,South,181,0.0,0.0,88,0.31,,-RA,0.35,VWS V14.01,2013-07-24 07:57:00,
2013-07-24 04:02:00,62.8,59.2,29.72,South,181,0.0,0.0,88,0.28,,-RA,0.35,VWS V14.01,2013-07-24 08:02:00,
2013-07-24 04:07:00,62.8,59.2,29.72,South,181,0.0,0.0,88,0.28,,-RA,0.35,VWS V14.01,2013-07-24 08:07:00,
2013-07-24 04:12:00,62.4,59.1,29.72,SSE,164,3.1,3.1,89,0.24,,-RA,0.35,VWS V14.01,2013-07-24 08:12:00,
2013-07-24 04:17:00,62.4,59.1,29.72,SSE,156,0.0,3.1,89,0.24,,-RA,0.35,VWS V14.01,2013-07-24 08:17:00,
2013-07-24 04:22:00,61.9,58.6,29.72,SSE,163,0.0,0.0,89,0.24,,-RA,0.35,VWS V14.01,2013-07-24 08:22:00,
2013-07-24 04:27:00,61.9,58.6,29.75,SSE,163,0.0,0.0,89,0.24,,-RA,0.35,VWS V14.01,2013-07-24 08:27:00,
2013-07-24 04:32:00,61.9,58.6,29.75,SSE,163,0.0,0.0,89,0.24,,-RA,0.35,VWS V14.01,2013-07-24 08:32:00,
2013-07-24 04:37:00,61.5,58.2,29.75,SSE,163,0.0,0.0,89,0.24,,-RA,0.35,VWS V14.01,2013-07-24 08:37:00,
2013-07-24 04:42:00,61.5,58.2,29.75,SSE,154,0.0,0.0,89,0.20,,OVC021,0.35,VWS V14.01,2013-07-24 08:42:00,
2013-07-24 04:47:00,61.3,58.1,29.75,SSE,155,0.0,0.0,89,0.20,,OVC021,0.35,VWS V14.01,2013-07-24 08:47:00,
2013-07-24 04:52:00,61.3,58.1,29.75,North,350,0.0,0.0,89,0.16,,OVC020,0.35,VWS V14.01,2013-07-24 08:52:00,
2013-07-24 04:58:00,61.3,58.4,29.75,North,350,0.0,0.0,90,0.16,,OVC020,0.35,VWS V14.01,2013-07-24 08:58:00,
2013-07-24 05:03:00,61.3,58.4,29.75,North,350,0.0,0.0,90,0.00,,OVC020,0.35,VWS V14.01,2013-07-24 09:03:00,
2013-07-24 05:08:00,61.3,58.4,29.75,SW,219,0.0,0.0,90,0.00,,OVC020,0.35,VWS V14.01,2013-07-24 09:08:00,
2013-07-24 05:13:00,61.2,58.2,29.75,SW,219,0.0,0.0,90,0.00,,OVC020,0.35,VWS V14.01,2013-07-24 09:13:00,
2013-07-24 05:18:00,61.2,58.2,29.75,SW,219,0.0,0.0,90,0.00,,OVC020,0.35,VWS V14.01,2013-07-24 09:18:00,
2013-07-24 05:23:00,61.2,58.2,29.75,SW,219,0.0,0.0,90,0.00,,OVC020,0.35,VWS V14.01,2013-07-24 09:23:00,
2013-07-24 05:28:00,61.0,58.0,29.75,SSE,165,0.0,0.0,90,0.00,,OVC020,0.35,VWS V14.01,2013-07-24 09:28:00,
2013-07-24 05:33:00,61.0,58.0,29.75,SSE,165,0.0,0.0,90,0.00,,OVC020,0.35,VWS V14.01,2013-07-24 09:33:00,
2013-07-24 05:38:00,61.0,58.0,29.75,SSE,165,0.0,0.0,90,0.00,,OVC020,0.35,VWS V14.01,2013-07-24 09:38:00,
2013-07-24 05:43:00,61.0,58.0,29.75,South,169,0.0,0.0,90,0.00,,OVC034,0.35,VWS V14.01,2013-07-24 09:43:00,
2013-07-24 05:48:00,60.8,57.8,29.75,South,169,0.0,0.0,90,0.00,,OVC034,0.35,VWS V14.01,2013-07-24 09:48:00,
2013-07-24 05:53:00,60.8,57.8,29.75,South,175,0.0,0.0,90,0.00,,OVC021,0.35,VWS V14.01,2013-07-24 09:53:00,
2013-07-24 05:58:00,60.8,57.8,29.75,South,181,0.0,0.0,90,0.00,,OVC021,0.35,VWS V14.01,2013-07-24 09:58:00,
2013-07-24 06:03:00,60.6,58.0,29.75,South,180,0.0,0.0,91,0.00,,OVC021,0.35,VWS V14.01,2013-07-24 10:03:00,
2013-07-24 06:08:00,60.6,58.0,29.75,South,180,0.0,0.0,91,0.00,,OVC021,0.35,VWS V14.01,2013-07-24 10:08:00,
2013-07-24 06:13:00,60.6,58.0,29.75,SW,233,0.0,0.0,91,0.00,,OVC021,0.35,VWS V14.01,2013-07-24 10:13:00,
2013-07-24 06:18:00,60.6,58.0,29.78,NW,314,0.0,0.0,91,0.00,,OVC021,0.35,VWS V14.01,2013-07-24 10:18:00,
2013-07-24 06:23:00,60.6,58.0,29.78,NW,314,0.0,0.0,91,0.00,,OVC021,0.35,VWS V14.01,2013-07-24 10:23:00,
2013-07-24 06:28:00,60.6,58.0,29.78,SSW,200,0.0,0.0,91,0.00,,OVC021,0.35,VWS V14.01,2013-07-24 10:28:00,
2013-07-24 06:33:00,60.6,58.0,29.78,SSW,200,0.0,0.0,91,0.00,,OVC021,0.35,VWS V14.01,2013-07-24 10:33:00,
2013-07-24 06:38:00,60.6,58.0,29.78,South,170,0.0,0.0,91,0.00,,OVC021,0.35,VWS V14.01,2013-07-24 10:38:00,
2013-07-24 06:43:00,60.6,58.0,29.78,South,170,0.0,0.0,91,0.00,,OVC013,0.35,VWS V14.01,2013-07-24 10:43:00,
2013-07-24 06:48:00,60.6,58.0,29.78,South,170,0.0,0.0,91,0.00,,OVC013,0.35,VWS V14.01,2013-07-24 10:48:00,
2013-07-24 06:53:00,60.6,58.0,29.78,WSW,250,0.0,0.0,91,0.00,,OVC013,0.35,VWS V14.01,2013-07-24 10:53:00,
2013-07-24 06:58:00,60.6,58.0,29.78,WSW,245,0.0,0.0,91,0.00,,OVC013,0.35,VWS V14.01,2013-07-24 10:58:00,
2013-07-24 07:03:00,60.6,58.0,29.78,NNE,26,0.0,0.0,91,0.00,,OVC013,0.35,VWS V14.01,2013-07-24 11:03:00,
2013-07-24 07:08:00,60.4,57.8,29.78,NNE,25,0.0,0.0,91,0.00,,OVC013,0.35,VWS V14.01,2013-07-24 11:08:00,
2013-07-24 07:13:00,60.4,57.8,29.78,NNW,330,0.0,0.0,91,0.00,,OVC013,0.35,VWS V14.01,2013-07-24 11:13:00,
2013-07-24 07:18:00,60.6,58.0,29.78,NNW,330,0.0,0.0,91,0.00,,OVC013,0.35,VWS V14.01,2013-07-24 11:18:00,
2013-07-24 07:23:00,60.4,57.8,29.78,SSW,202,0.0,0.0,91,0.00,,OVC013,0.35,VWS V14.01,2013-07-24 11:23:00,
2013-07-24 07:28:00,60.4,57.8,29.78,NNW,341,0.0,0.0,91,0.00,,OVC013,0.35,VWS V14.01,2013-07-24 11:28:00,
2013-07-24 07:33:00,60.3,57.6,29.78,NNW,341,0.0,0.0,91,0.00,,OVC013,0.35,VWS V14.01,2013-07-24 11:33:00,
2013-07-24 07:38:00,60.1,57.5,29.78,NW,326,0.0,0.0,91,0.00,,OVC013,0.35,VWS V14.01,2013-07-24 11:38:00,
2013-07-24 07:43:00,60.1,57.5,29.78,WNW,301,0.0,0.0,91,0.00,,OVC008,0.35,VWS V14.01,2013-07-24 11:43:00,
2013-07-24 07:48:00,59.7,56.8,29.78,NNW,334,0.0,0.0,90,0.00,,OVC008,0.35,VWS V14.01,2013-07-24 11:48:00,
2013-07-24 07:53:00,59.7,56.8,29.81,North,357,0.0,0.0,90,0.00,,OVC008,0.35,VWS V14.01,2013-07-24 11:53:00,
2013-07-24 07:58:00,59.9,57.0,29.81,NW,320,0.0,0.0,90,0.00,,OVC008,0.35,VWS V14.01,2013-07-24 11:58:00,
2013-07-24 08:03:00,59.5,56.6,29.81,North,353,3.1,3.1,90,0.00,,OVC008,0.35,VWS V14.01,2013-07-24 12:03:00,
2013-07-24 08:08:00,59.5,56.6,29.81,East,94,0.0,3.1,90,0.00,,OVC008,0.35,VWS V14.01,2013-07-24 12:08:00,
2013-07-24 08:13:00,58.8,55.6,29.81,North,5,10.5,10.5,89,0.00,,OVC008,0.35,VWS V14.01,2013-07-24 12:13:00,
2013-07-24 08:18:00,58.3,54.8,29.81,NNW,332,3.6,10.5,88,0.00,,OVC008,0.35,VWS V14.01,2013-07-24 12:18:00,
2013-07-24 08:19:00,58.3,54.8,29.81,NNW,332,3.6,10.5,88,0.00,,OVC008,0.35,VWS V14.01,2013-07-24 12:19:00,
2013-07-24 08:24:00,58.3,54.8,29.81,NNE,18,0.0,3.6,88,0.00,,OVC008,0.35,VWS V14.01,2013-07-24 12:24:00,
2013-07-24 08:29:00,56.8,53.6,29.81,NNW,337,2.7,3.6,89,0.00,,OVC008,0.35,VWS V14.01,2013-07-24 12:29:00,
2013-07-24 08:34:00,56.8,53.6,29.84,NNW,337,2.7,2.7,89,0.00,,OVC008,0.35,VWS V14.01,2013-07-24 12:34:00,
2013-07-24 08:39:00,56.3,53.1,29.84,NW,322,2.2,2.7,89,0.00,,OVC008,0.35,VWS V14.01,2013-07-24 12:39:00,
2013-07-24 08:44:00,56.3,53.1,29.84,NW,317,0.0,2.2,89,0.00,,OVC010,0.35,VWS V14.01,2013-07-24 12:44:00,
2013-07-24 08:49:00,55.6,52.4,29.84,NW,317,0.0,2.2,89,0.00,,OVC010,0.35,VWS V14.01,2013-07-24 12:49:00,
2013-07-24 08:54:00,55.6,52.4,29.84,SSE,159,0.0,0.0,89,0.00,,,0.35,VWS V14.01,2013-07-24 12:54:00,
2013-07-24 08:59:00,55.2,52.3,29.84,WNW,299,0.0,0.0,90,0.00,,,0.35,VWS V14.01,2013-07-24 12:59:00,
2013-07-24 09:04:00,54.9,52.0,29.84,North,353,2.7,2.7,90,0.00,,,0.35,VWS V14.01,2013-07-24 13:04:00,
2013-07-24 09:09:00,54.9,52.0,29.84,North,353,2.7,2.7,90,0.00,,,0.35,VWS V14.01,2013-07-24 13:09:00,
2013-07-24 09:14:00,54.7,51.8,29.84,NNE,24,0.0,2.7,90,0.00,,,0.35,VWS V14.01,2013-07-24 13:14:00,
2013-07-24 09:19:00,54.7,51.8,29.84,NW,326,0.0,2.7,90,0.00,,,0.35,VWS V14.01,2013-07-24 13:19:00,
2013-07-24 09:24:00,54.9,52.3,29.84,NW,326,0.0,0.0,91,0.00,,,0.35,VWS V14.01,2013-07-24 13:24:00,
2013-07-24 09:30:00,55.4,52.8,29.87,SW,229,0.0,0.0,91,0.00,,,0.35,VWS V14.01,2013-07-24 13:30:00,
2013-07-24 09:35:00,55.4,52.8,29.87,North,353,4.5,4.5,91,0.00,,,0.35,VWS V14.01,2013-07-24 13:35:00,
2013-07-24 09:40:00,56.1,53.5,29.87,NNW,329,2.7,4.5,91,0.00,,,0.35,VWS V14.01,2013-07-24 13:40:00,
2013-07-24 09:45:00,56.5,53.9,29.87,NW,326,3.6,3.6,91,0.00,,,0.35,VWS V14.01,2013-07-24 13:45:00,
2013-07-24 09:50:00,56.5,53.9,29.87,NW,326,3.6,3.6,91,0.00,,,0.35,VWS V14.01,2013-07-24 13:50:00,
2013-07-24 09:55:00,56.3,53.7,29.87,SSE,152,3.1,3.6,91,0.00,,,0.35,VWS V14.01,2013-07-24 13:55:00,
2013-07-24 10:00:00,56.1,53.2,29.87,North,357,0.0,0.0,90,0.00,,,0.35,VWS V14.01,2013-07-24 14:00:00,
2013-07-24 10:05:00,56.3,53.4,29.87,North,357,0.0,0.0,90,0.00,,,0.35,VWS V14.01,2013-07-24 14:05:00,
2013-07-24 10:10:00,56.3,53.4,29.87,SSW,194,0.0,0.0,90,0.00,,,0.35,VWS V14.01,2013-07-24 14:10:00,
2013-07-24 10:15:00,56.5,53.6,29.87,SSW,207,0.0,0.0,90,0.00,,,0.35,VWS V14.01,2013-07-24 14:15:00,
2013-07-24 10:20:00,56.5,53.6,29.87,SSW,207,0.0,0.0,90,0.00,,,0.35,VWS V14.01,2013-07-24 14:20:00,
2013-07-24 10:25:00,56.7,53.8,29.90,SSE,154,0.0,0.0,90,0.00,,,0.35,VWS V14.01,2013-07-24 14:25:00,
2013-07-24 10:30:00,56.7,53.8,29.90,SW,218,0.0,0.0,90,0.00,,,0.35,VWS V14.01,2013-07-24 14:30:00,
2013-07-24 10:35:00,56.7,53.8,29.90,SSW,208,0.0,0.0,90,0.00,,,0.35,VWS V14.01,2013-07-24 14:35:00,
2013-07-24 10:40:00,56.7,53.8,29.90,SSW,208,0.0,0.0,90,0.00,,OVC015,0.35,VWS V14.01,2013-07-24 14:40:00,
2013-07-24 10:45:00,56.7,53.8,29.90,South,185,0.0,0.0,90,0.00,,OVC015,0.35,VWS V14.01,2013-07-24 14:45:00,
2013-07-24 10:50:00,56.7,53.5,29.90,SE,125,0.0,0.0,89,0.00,,OVC015,0.35,VWS V14.01,2013-07-24 14:50:00,
2013-07-24 10:55:00,56.7,53.5,29.90,SE,125,0.0,0.0,89,0.00,,OVC015,0.35,VWS V14.01,2013-07-24 14:55:00,
2013-07-24 11:00:00,56.8,53.6,29.90,South,171,0.0,0.0,89,0.00,,OVC015,0.35,VWS V14.01,2013-07-24 15:00:00,
2013-07-24 11:05:00,56.8,53.3,29.90,SSE,160,0.0,0.0,88,0.00,,OVC015,0.35,VWS V14.01,2013-07-24 15:05:00,
2013-07-24 11:10:00,56.8,53.3,29.90,SSE,162,0.0,0.0,88,0.00,,OVC015,0.35,VWS V14.01,2013-07-24 15:10:00,
2013-07-24 11:15:00,56.7,53.2,29.90,SSE,162,0.0,0.0,88,0.00,,OVC015,0.35,VWS V14.01,2013-07-24 15:15:00,
2013-07-24 11:20:00,56.7,53.2,29.90,SW,229,3.1,3.1,88,0.00,,OVC015,0.35,VWS V14.01,2013-07-24 15:20:00,
2013-07-24 11:25:00,56.8,52.7,29.90,SSE,155,0.0,3.1,86,0.00,,OVC015,0.35,VWS V14.01,2013-07-24 15:25:00,
2013-07-24 11:30:00,57.4,53.2,29.90,SSE,155,0.0,0.0,86,0.00,,OVC015,0.35,VWS V14.01,2013-07-24 15:30:00,
2013-07-24 11:40:00,58.1,53.9,29.90,SSE,167,0.0,4.9,86,0.00,,OVC015,0.35,VWS V14.01,2013-07-24 15:40:00,
2013-07-24 11:45:00,58.3,53.8,29.93,SSE,167,0.0,0.0,85,0.00,,OVC012,0.35,VWS V14.01,2013-07-24 15:45:00,
2013-07-24 11:50:00,57.6,52.4,29.93,SW,225,0.0,0.0,83,0.00,,OVC012,0.35,VWS V14.01,2013-07-24 15:50:00,
2013-07-24 11:55:00,57.6,52.4,29.93,NNW,328,4.0,4.0,83,0.00,,OVC012,0.35,VWS V14.01,2013-07-24 15:55:00,
2013-07-24 12:00:00,55.4,48.3,29.93,NNW,328,4.0,4.0,77,0.00,,OVC012,0.35,VWS V14.01,2013-07-24 16:00:00,
2013-07-24 12:05:00,54.7,47.6,29.93,NNW,328,4.0,4.0,77,0.00,,OVC012,0.35,VWS V14.01,2013-07-24 16:05:00,
2013-07-24 12:10:00,54.5,47.8,29.93,NNW,331,3.6,3.6,78,0.00,,OVC012,0.35,VWS V14.01,2013-07-24 16:10:00,
2013-07-24 12:15:00,54.3,48.0,29.93,NNW,331,3.6,3.6,79,0.00,,OVC012,0.35,VWS V14.01,2013-07-24 16:15:00,
2013-07-24 12:20:00,54.5,48.1,29.96,NNW,331,3.6,3.6,79,0.00,,OVC012,0.35,VWS V14.01,2013-07-24 16:20:00,
2013-07-24 12:25:00,55.4,49.3,29.96,NNW,333,2.7,3.6,80,0.00,,OVC012,0.35,VWS V14.01,2013-07-24 16:25:00,
2013-07-24 12:30:00,55.4,49.3,29.96,North,357,5.4,5.4,80,0.00,,OVC012,0.35,VWS V14.01,2013-07-24 16:30:00,
2013-07-24 12:35:00,56.7,47.4,29.96,NNW,339,4.0,5.4,71,0.00,,OVC012,0.35,VWS V14.01,2013-07-24 16:35:00,
2013-07-24 12:40:00,57.4,48.8,29.96,NNW,339,4.0,4.0,73,0.00,,OVC012,0.35,VWS V14.01,2013-07-24 16:40:00,
2013-07-24 12:45:00,57.4,48.8,29.96,South,185,6.3,6.3,73,0.00,,OVC014,0.35,VWS V14.01,2013-07-24 16:45:00,
2013-07-24 12:50:00,59.4,50.7,29.96,SW,234,2.7,2.7,73,0.00,,OVC014,0.35,VWS V14.01,2013-07-24 16:50:00,
2013-07-24 12:55:00,59.4,50.7,29.96,SW,234,2.7,2.7,73,0.00,,OVC014,0.35,VWS V14.01,2013-07-24 16:55:00,
2013-07-24 13:00:00,59.7,49.9,29.96,NNW,328,2.7,2.7,70,0.00,,OVC014,0.35,VWS V14.01,2013-07-24 17:00:00,
2013-07-24 13:05:00,59.7,49.9,29.96,NNW,338,3.1,4.9,70,0.00,,OVC014,0.35,VWS V14.01,2013-07-24 17:05:00,
2013-07-24 13:10:00,59.7,49.9,29.96,SW,234,0.0,0.0,70,0.00,,OVC014,0.35,VWS V14.01,2013-07-24 17:10:00,
2013-07-24 13:15:00,59.0,48.1,29.96,SW,234,0.0,0.0,67,0.00,,OVC014,0.35,VWS V14.01,2013-07-24 17:15:00,
2013-07-24 13:20:00,59.2,47.4,29.96,North,357,0.0,0.0,65,0.00,,OVC014,0.35,VWS V14.01,2013-07-24 17:20:00,
2013-07-24 13:25:00,59.5,47.8,29.96,SSE,165,3.1,3.1,65,0.00,,OVC014,0.35,VWS V14.01,2013-07-24 17:25:00,
2013-07-24 13:30:00,59.5,47.8,29.96,SW,219,0.0,3.6,65,0.00,,OVC014,0.35,VWS V14.01,2013-07-24 17:30:00,
2013-07-24 13:35:00,59.7,44.9,29.96,SW,219,0.0,3.6,58,0.00,,OVC014,0.35,VWS V14.01,2013-07-24 17:35:00,
2013-07-24 13:40:00,59.0,44.3,29.96,SW,220,2.2,2.2,58,0.00,,OVC020,0.35,VWS V14.01,2013-07-24 17:40:00,
2013-07-24 13:45:00,58.8,43.2,29.96,SSE,156,2.7,2.7,56,0.00,,OVC020,0.35,VWS V14.01,2013-07-24 17:45:00,
2013-07-24 13:50:00,58.5,42.8,29.96,SSE,156,2.7,2.7,56,0.00,,OVC020,0.35,VWS V14.01,2013-07-24 17:50:00,
2013-07-24 13:55:00,58.5,42.8,29.96,SW,221,0.0,2.7,56,0.00,,OVC020,0.35,VWS V14.01,2013-07-24 17:55:00,
2013-07-24 14:00:00,58.6,43.0,29.96,SSE,166,4.0,4.0,56,0.00,,OVC020,0.35,VWS V14.01,2013-07-24 18:00:00,
2013-07-24 14:05:00,58.6,43.0,29.96,SSW,213,0.0,4.0,56,0.00,,OVC020,0.35,VWS V14.01,2013-07-24 18:05:00,
2013-07-24 14:10:00,58.8,42.2,29.96,WSW,239,3.1,3.1,54,0.00,,OVC020,0.35,VWS V14.01,2013-07-24 18:10:00,
2013-07-24 14:15:00,58.6,41.6,29.96,NNW,335,5.4,6.3,53,0.00,,OVC020,0.35,VWS V14.01,2013-07-24 18:15:00,
2013-07-24 14:20:00,58.6,41.6,29.96,SW,227,4.0,4.0,53,0.00,,OVC020,0.35,VWS V14.01,2013-07-24 18:20:00,
2013-07-24 14:25:00,58.6,41.6,29.96,SW,227,4.0,4.0,53,0.00,,OVC020,0.35,VWS V14.01,2013-07-24 18:25:00,
2013-07-24 14:30:00,58.6,42.1,29.96,NW,308,2.2,2.2,54,0.00,,OVC020,0.35,VWS V14.01,2013-07-24 18:30:00,
2013-07-24 14:35:00,58.6,42.1,29.96,SW,214,3.1,3.1,54,0.00,,OVC020,0.35,VWS V14.01,2013-07-24 18:35:00,
2013-07-24 14:40:00,58.8,42.7,29.96,SSE,158,3.1,3.1,55,0.00,,OVC022,0.35,VWS V14.01,2013-07-24 18:40:00,
2013-07-24 14:45:00,58.8,42.7,29.96,SW,236,3.1,3.1,55,0.00,,OVC022,0.35,VWS V14.01,2013-07-24 18:45:00,
2013-07-24 14:50:00,58.8,42.2,29.96,NNW,340,0.0,0.0,54,0.00,,OVC022,0.35,VWS V14.01,2013-07-24 18:50:00,
2013-07-24 14:55:00,58.6,42.1,29.96,South,178,2.7,2.7,54,0.00,,OVC022,0.35,VWS V14.01,2013-07-24 18:55:00,
2013-07-24 15:00:00,58.3,41.2,29.96,SW,223,6.3,6.3,53,0.00,,OVC022,0.35,VWS V14.01,2013-07-24 19:00:00,
2013-07-24 15:06:00,57.9,40.9,29.96,NW,317,3.1,6.3,53,0.00,,OVC022,0.35,VWS V14.01,2013-07-24 19:06:00,
2013-07-24 15:11:00,57.9,40.9,29.98,North,7,7.6,7.6,53,0.00,,OVC022,0.35,VWS V14.01,2013-07-24 19:11:00,
2013-07-24 15:16:00,57.9,40.4,29.98,SW,226,2.7,7.6,52,0.00,,OVC022,0.35,VWS V14.01,2013-07-24 19:16:00,
2013-07-24 15:20:00,57.9,40.9,29.98,SW,223,0.0,0.0,53,0.00,,OVC022,0.35,VWS V14.01,2013-07-24 19:20:00,
2013-07-24 15:25:00,58.3,41.2,29.98,NW,326,0.0,0.0,53,0.00,,OVC022,0.35,VWS V14.01,2013-07-24 19:25:00,
2013-07-24 15:31:00,58.3,40.8,29.98,NW,320,3.1,3.1,52,0.00,,OVC022,0.35,VWS V14.01,2013-07-24 19:31:00,
2013-07-24 15:36:00,58.5,40.9,29.98,WNW,290,3.6,3.6,52,0.00,,OVC022,0.35,VWS V14.01,2013-07-24 19:36:00,
2013-07-24 15:41:00,58.6,41.6,29.98,South,171,0.0,0.0,53,0.00,,OVC026,0.35,VWS V14.01,2013-07-24 19:41:00,
2013-07-24 15:46:00,58.6,41.6,29.98,North,6,6.3,6.3,53,0.00,,OVC026,0.35,VWS V14.01,2013-07-24 19:46:00,
2013-07-24 15:51:00,58.6,40.6,29.98,NNW,334,3.1,3.1,51,0.00,,OVC026,0.35,VWS V14.01,2013-07-24 19:51:00,
2013-07-24 15:56:00,58.1,39.6,29.98,SW,223,3.1,3.1,50,0.00,,OVC026,0.35,VWS V14.01,2013-07-24 19:56:00,
2013-07-24 16:01:00,57.7,39.8,29.98,WSW,244,0.0,0.0,51,0.00,,OVC026,0.35,VWS V14.01,2013-07-24 20:01:00,
2013-07-24 16:07:00,57.6,40.1,29.98,NNW,330,5.4,5.4,52,0.00,,OVC026,0.35,VWS V14.01,2013-07-24 20:07:00,
2013-07-24 16:12:00,57.6,40.1,29.98,NW,312,2.2,2.2,52,0.00,,OVC026,0.35,VWS V14.01,2013-07-24 20:12:00,
2013-07-24 16:17:00,57.6,40.1,29.98,NW,314,2.2,2.2,52,0.00,,OVC026,0.35,VWS V14.01,2013-07-24 20:17:00,
2013-07-24 16:22:00,57.6,40.1,29.98,NW,318,2.7,4.0,52,0.00,,OVC026,0.35,VWS V14.01,2013-07-24 20:22:00,
2013-07-24 16:27:00,57.6,40.1,29.98,NNW,329,4.9,4.9,52,0.00,,OVC026,0.35,VWS V14.01,2013-07-24 20:27:00,
2013-07-24 16:32:00,57.6,40.1,29.98,NNW,340,0.0,0.0,52,0.00,,OVC026,0.35,VWS V14.01,2013-07-24 20:32:00,
2013-07-24 16:37:00,57.6,40.1,29.98,NNW,328,3.6,3.6,52,0.00,,OVC026,0.35,VWS V14.01,2013-07-24 20:37:00,
2013-07-24 16:42:00,57.7,40.2,29.98,NW,325,2.7,2.7,52,0.00,,OVC030,0.35,VWS V14.01,2013-07-24 20:42:00,
2013-07-24 16:47:00,57.7,40.2,29.98,NNW,342,4.0,4.0,52,0.00,,OVC030,0.35,VWS V14.01,2013-07-24 20:47:00,
2013-07-24 16:52:00,57.7,39.2,29.98,NNW,335,8.3,8.3,50,0.00,,OVC030,0.35,VWS V14.01,2013-07-24 20:52:00,
2013-07-24 16:57:00,57.2,38.8,29.98,NNE,18,5.8,8.3,50,0.00,,OVC030,0.35,VWS V14.01,2013-07-24 20:57:00,
2013-07-24 17:02:00,57.2,38.8,29.98,North,353,6.3,6.3,50,0.00,,OVC030,0.35,VWS V14.01,2013-07-24 21:02:00,
2013-07-24 17:07:00,57.2,38.8,29.98,North,353,5.4,6.3,50,0.00,,OVC030,0.35,VWS V14.01,2013-07-24 21:07:00,
2013-07-24 17:12:00,57.2,38.8,30.01,NW,316,3.1,5.4,50,0.00,,OVC030,0.35,VWS V14.01,2013-07-24 21:12:00,
2013-07-24 17:17:00,57.7,39.2,30.01,SW,230,2.7,5.4,50,0.00,,OVC030,0.35,VWS V14.01,2013-07-24 21:17:00,
2013-07-24 17:22:00,57.7,39.2,30.01,WSW,240,0.0,0.0,50,0.00,,OVC030,0.35,VWS V14.01,2013-07-24 21:22:00,
2013-07-24 17:27:00,57.9,39.4,30.01,NNE,25,4.0,4.0,50,0.00,,OVC030,0.35,VWS V14.01,2013-07-24 21:27:00,
2013-07-24 17:32:00,57.9,38.9,30.01,NNE,12,2.2,2.2,49,0.00,,OVC030,0.35,VWS V14.01,2013-07-24 21:32:00,
2013-07-24 17:37:00,57.6,38.6,30.01,North,349,5.8,5.8,49,0.00,,OVC030,0.35,VWS V14.01,2013-07-24 21:37:00,
2013-07-24 17:42:00,57.6,39.1,30.01,West,279,4.9,4.9,50,0.00,,OVC032,0.35,VWS V14.01,2013-07-24 21:42:00,
2013-07-24 17:47:00,57.6,39.1,30.01,NNW,348,6.7,6.7,50,0.00,,OVC032,0.35,VWS V14.01,2013-07-24 21:47:00,
2013-07-24 17:52:00,57.7,38.7,30.01,NNW,344,6.3,6.3,49,0.00,,OVC032,0.35,VWS V14.01,2013-07-24 21:52:00,
2013-07-24 17:57:00,57.7,38.7,30.01,NNW,335,3.1,6.3,49,0.00,,OVC032,0.35,VWS V14.01,2013-07-24 21:57:00,
2013-07-24 18:02:00,57.7,38.7,30.01,NNW,335,3.1,3.1,49,0.00,,OVC032,0.35,VWS V14.01,2013-07-24 22:02:00,
2013-07-24 18:07:00,57.7,38.7,30.01,SW,214,0.0,3.1,49,0.00,,OVC032,0.35,VWS V14.01,2013-07-24 22:07:00,
2013-07-24 18:12:00,57.6,39.1,30.01,NNW,342,4.0,4.0,50,0.00,,OVC032,0.35,VWS V14.01,2013-07-24 22:12:00,
2013-07-24 18:17:00,57.6,39.1,30.01,SW,228,0.0,4.0,50,0.00,,OVC032,0.35,VWS V14.01,2013-07-24 22:17:00,
2013-07-24 18:22:00,57.6,39.1,30.01,SSW,203,0.0,3.1,50,0.00,,OVC032,0.35,VWS V14.01,2013-07-24 22:22:00,
2013-07-24 18:27:00,57.6,39.1,30.01,WNW,303,0.0,3.1,50,0.00,,OVC032,0.35,VWS V14.01,2013-07-24 22:27:00,
2013-07-24 18:32:00,57.7,39.8,30.01,West,263,2.7,4.0,51,0.00,,OVC032,0.35,VWS V14.01,2013-07-24 22:32:00,
2013-07-24 18:37:00,57.6,39.1,30.01,West,263,2.7,4.0,50,0.00,,OVC032,0.35,VWS V14.01,2013-07-24 22:37:00,
2013-07-24 18:42:00,57.4,38.9,30.01,NW,308,0.0,0.0,50,0.00,,BKN032,0.35,VWS V14.01,2013-07-24 22:42:00,
2013-07-24 18:47:00,57.4,38.9,30.01,NNW,335,0.0,0.0,50,0.00,,BKN032,0.35,VWS V14.01,2013-07-24 22:47:00,
2013-07-24 18:52:00,57.0,38.6,30.01,NW,315,4.0,4.0,50,0.00,,BKN032,0.35,VWS V14.01,2013-07-24 22:52:00,
2013-07-24 18:57:00,57.0,38.6,30.01,NW,319,5.8,5.8,50,0.00,,BKN032,0.35,VWS V14.01,2013-07-24 22:57:00,
2013-07-24 19:02:00,56.5,38.6,30.01,NNW,341,2.7,2.7,51,0.00,,BKN032,0.35,VWS V14.01,2013-07-24 23:02:00,
2013-07-24 19:07:00,56.3,38.9,30.01,SW,220,0.0,2.7,52,0.00,,BKN032,0.35,VWS V14.01,2013-07-24 23:07:00,
2013-07-24 19:12:00,56.5,39.1,30.01,North,357,0.0,0.0,52,0.00,,BKN032,0.35,VWS V14.01,2013-07-24 23:12:00,
2013-07-24 19:17:00,56.7,39.7,30.01,North,357,0.0,0.0,53,0.00,,BKN032,0.35,VWS V14.01,2013-07-24 23:17:00,
2013-07-24 19:22:00,56.7,39.7,30.01,North,357,0.0,0.0,53,0.00,,BKN032,0.35,VWS V14.01,2013-07-24 23:22:00,
2013-07-24 19:27:00,56.7,39.7,30.01,North,357,0.0,0.0,53,0.00,,BKN032,0.35,VWS V14.01,2013-07-24 23:27:00,
2013-07-24 19:32:00,56.7,40.2,30.04,NNW,335,4.0,4.0,54,0.00,,BKN032,0.35,VWS V14.01,2013-07-24 23:32:00,
2013-07-24 19:37:00,56.5,40.0,30.04,NNW,345,0.0,4.0,54,0.00,,BKN032,0.35,VWS V14.01,2013-07-24 23:37:00,
2013-07-24 19:43:00,56.5,40.0,30.04,NNW,327,0.0,0.0,54,0.00,,OVC032,0.35,VWS V14.01,2013-07-24 23:43:00,
2013-07-24 19:48:00,56.3,39.9,30.04,NNW,327,0.0,0.0,54,0.00,,OVC032,0.35,VWS V14.01,2013-07-24 23:48:00,
2013-07-24 19:53:00,56.3,40.4,30.04,NNW,327,0.0,0.0,55,0.00,,OVC032,0.35,VWS V14.01,2013-07-24 23:53:00,
2013-07-24 19:58:00,56.3,40.4,30.04,NNW,329,0.0,0.0,55,0.00,,OVC032,0.35,VWS V14.01,2013-07-24 23:58:00,
2013-07-24 20:03:00,55.9,40.5,30.04,NNW,329,0.0,0.0,56,0.00,,OVC032,0.35,VWS V14.01,2013-07-25 00:03:00,
2013-07-24 20:08:00,55.8,40.8,30.04,NNW,329,0.0,0.0,57,0.00,,OVC032,0.35,VWS V14.01,2013-07-25 00:08:00,
2013-07-24 20:13:00,55.6,40.6,30.04,NNW,329,0.0,0.0,57,0.00,,CLR,0.35,VWS V14.01,2013-07-25 00:13:00,
2013-07-24 20:18:00,55.0,40.5,30.04,NNW,329,0.0,0.0,58,0.00,,CLR,0.35,VWS V14.01,2013-07-25 00:18:00,
2013-07-24 20:23:00,54.5,40.5,30.04,NNW,329,0.0,0.0,59,0.00,,CLR,0.35,VWS V14.01,2013-07-25 00:23:00,
2013-07-24 20:28:00,54.1,40.1,30.07,NNW,329,0.0,0.0,59,0.00,,CLR,0.35,VWS V14.01,2013-07-25 00:28:00,
2013-07-24 20:33:00,53.1,39.6,30.07,NNW,329,0.0,0.0,60,0.00,,CLR,0.35,VWS V14.01,2013-07-25 00:33:00,
2013-07-24 20:38:00,52.7,39.6,30.07,NNW,329,0.0,0.0,61,0.00,,CLR,0.35,VWS V14.01,2013-07-25 00:38:00,
2013-07-24 20:43:00,52.2,39.5,30.07,NNW,329,0.0,0.0,62,0.00,,CLR,0.35,VWS V14.01,2013-07-25 00:43:00,
2013-07-24 20:48:00,52.0,39.8,30.07,NNW,329,0.0,0.0,63,0.00,,CLR,0.35,VWS V14.01,2013-07-25 00:48:00,
2013-07-24 20:53:00,51.6,40.2,30.07,NNW,329,0.0,0.0,65,0.00,,CLR,0.35,VWS V14.01,2013-07-25 00:53:00,
2013-07-24 20:58:00,51.1,40.5,30.07,NNW,329,0.0,0.0,67,0.00,,CLR,0.35,VWS V14.01,2013-07-25 00:58:00,
2013-07-24 21:03:00,51.1,40.5,30.07,NNW,329,0.0,0.0,67,0.00,,CLR,0.35,VWS V14.01,2013-07-25 01:03:00,
2013-07-24 21:04:00,51.1,40.5,30.07,NNW,329,0.0,0.0,67,0.00,,CLR,0.35,VWS V14.01,2013-07-25 01:04:00,
2013-07-24 21:09:00,50.5,40.4,30.07,NNW,329,0.0,0.0,68,0.00,,CLR,0.35,VWS V14.01,2013-07-25 01:09:00,
2013-07-24 21:14:00,50.5,40.4,30.07,NNW,329,0.0,0.0,68,0.00,,CLR,0.35,VWS V14.01,2013-07-25 01:14:00,
2013-07-24 21:19:00,50.0,40.6,30.07,NNW,329,0.0,0.0,70,0.00,,CLR,0.35,VWS V14.01,2013-07-25 01:19:00,
2013-07-24 21:24:00,49.6,40.6,30.07,NNW,329,0.0,0.0,71,0.00,,CLR,0.35,VWS V14.01,2013-07-25 01:24:00,
2013-07-24 21:29:00,49.6,40.6,30.07,NNW,329,0.0,0.0,71,0.00,,CLR,0.35,VWS V14.01,2013-07-25 01:29:00,
2013-07-24 21:34:00,49.1,40.5,30.07,NNW,329,0.0,0.0,72,0.00,,CLR,0.35,VWS V14.01,2013-07-25 01:34:00,
2013-07-24 21:39:00,49.1,40.5,30.07,NNW,329,0.0,0.0,72,0.00,,CLR,0.35,VWS V14.01,2013-07-25 01:39:00,
2013-07-24 21:44:00,48.7,40.8,30.07,NNW,329,0.0,0.0,74,0.00,,CLR,0.35,VWS V14.01,2013-07-25 01:44:00,
2013-07-24 21:49:00,48.7,40.8,30.07,NNW,329,0.0,0.0,74,0.00,,CLR,0.35,VWS V14.01,2013-07-25 01:49:00,
2013-07-24 21:54:00,48.4,40.5,30.07,NNW,329,0.0,0.0,74,0.00,,CLR,0.35,VWS V14.01,2013-07-25 01:54:00,
2013-07-24 21:59:00,48.0,40.5,30.07,NNW,329,0.0,0.0,75,0.00,,CLR,0.35,VWS V14.01,2013-07-25 01:59:00,
2013-07-24 22:04:00,48.0,40.5,30.07,NNW,329,0.0,0.0,75,0.00,,CLR,0.35,VWS V14.01,2013-07-25 02:04:00,
2013-07-24 22:09:00,47.7,40.1,30.07,NNW,329,0.0,0.0,75,0.00,,CLR,0.35,VWS V14.01,2013-07-25 02:09:00,
2013-07-24 22:14:00,47.5,40.0,30.07,NNW,329,0.0,0.0,75,0.00,,CLR,0.35,VWS V14.01,2013-07-25 02:14:00,
2013-07-24 22:20:00,47.3,40.1,30.07,NNW,329,0.0,0.0,76,0.00,,CLR,0.35,VWS V14.01,2013-07-25 02:20:00,
2013-07-24 22:25:00,47.1,40.0,30.07,NNW,329,0.0,0.0,76,0.00,,CLR,0.35,VWS V14.01,2013-07-25 02:25:00,
2013-07-24 22:30:00,47.1,40.0,30.10,NNW,329,0.0,0.0,76,0.00,,CLR,0.35,VWS V14.01,2013-07-25 02:30:00,
2013-07-24 22:35:00,46.8,39.9,30.10,NNW,329,0.0,0.0,77,0.00,,CLR,0.35,VWS V14.01,2013-07-25 02:35:00,
2013-07-24 22:40:00,46.8,39.9,30.10,NNW,329,0.0,0.0,77,0.00,,CLR,0.35,VWS V14.01,2013-07-25 02:40:00,
2013-07-24 22:45:00,46.8,39.9,30.10,NNW,329,0.0,0.0,77,0.00,,CLR,0.35,VWS V14.01,2013-07-25 02:45:00,
2013-07-24 22:50:00,46.8,39.9,30.10,NNW,329,0.0,0.0,77,0.00,,CLR,0.35,VWS V14.01,2013-07-25 02:50:00,
2013-07-24 22:55:00,46.2,39.8,30.10,NNW,329,0.0,0.0,78,0.00,,CLR,0.35,VWS V14.01,2013-07-25 02:55:00,
2013-07-24 23:00:00,46.0,39.9,30.10,NNW,329,0.0,0.0,79,0.00,,CLR,0.35,VWS V14.01,2013-07-25 03:00:00,
2013-07-24 23:05:00,46.0,39.9,30.10,NNW,329,0.0,0.0,79,0.00,,CLR,0.35,VWS V14.01,2013-07-25 03:05:00,
2013-07-24 23:10:00,45.9,39.7,30.10,NNW,329,0.0,0.0,79,0.00,,CLR,0.35,VWS V14.01,2013-07-25 03:10:00,
2013-07-24 23:15:00,45.9,39.7,30.10,NNW,329,0.0,0.0,79,0.00,,CLR,0.35,VWS V14.01,2013-07-25 03:15:00,
2013-07-24 23:20:00,45.5,39.4,30.10,NNW,329,0.0,0.0,79,0.00,,CLR,0.35,VWS V14.01,2013-07-25 03:20:00,
2013-07-24 23:25:00,45.5,39.4,30.10,NNW,329,0.0,0.0,79,0.00,,CLR,0.35,VWS V14.01,2013-07-25 03:25:00,
2013-07-24 23:30:00,45.3,39.5,30.10,NNW,329,0.0,0.0,80,0.00,,CLR,0.35,VWS V14.01,2013-07-25 03:30:00,
2013-07-24 23:35:00,45.3,39.5,30.10,NNW,329,0.0,0.0,80,0.00,,CLR,0.35,VWS V14.01,2013-07-25 03:35:00,
2013-07-24 23:40:00,45.3,39.5,30.10,NNW,329,0.0,0.0,80,0.00,,CLR,0.35,VWS V14.01,2013-07-25 03:40:00,
2013-07-24 23:45:00,45.1,39.3,30.13,NNW,329,0.0,0.0,80,0.00,,CLR,0.35,VWS V14.01,2013-07-25 03:45:00,
2013-07-24 23:50:00,44.8,39.3,30.13,NNW,329,0.0,0.0,81,0.00,,CLR,0.35,VWS V14.01,2013-07-25 03:50:00,
2013-07-24 23:55:00,44.8,39.3,30.13,NNW,329,0.0,0.0,81,0.00,,CLR,0.35,VWS V14.01,2013-07-25 03:55:00,